OPS 6983 (DMSP 5C F1)

Satellite information

Favourite Embed

Satellite Type and Status

PAYLOADIN ORBIT

Key statistics

Satellite OPS 6983 (DMSP 5C F1) at a glance.

Uptime

18596

Days in orbit

Revolutions

≈ 14.3

Per day

Orbit

SSO

Sun Synchronous Orbit

Inclination

98.5

Latest

Satellite identification and parameters

Extended collection of information and parameters for OPS 6983 (DMSP 5C F1).

Object identification

Identified? True

Debris? False

Object name: OPS 6983 (DMSP 5C F1)

International designator: 1974-063A

Object number (NORAD): 7411

Object ID (CCSDS): 7411

Country: UNITED STATES OF AMERICA (US)

Current information (Y/N): Y

RCS size: LARGE

Orbital parameters

Period: 100.741 minutes

Inclination: 98.5431 deg

SMA: 7171.832 km

Apoapsis: 822.394 km

Periapsis: 765.0 km

RAAN: 33.0323 deg

Eccentricy: 0.0040014

Argument of periapsis: 301.8477 deg

Mean anomaly: 57.8813 deg

Mean motion: 14.29412576 rev/day

Mean motion (dot): 0.00000188 rev/day2

B* drag term: 0.000090234 1/REarth

Two-line elements (TLE)

Creation date: July 8, 2025, 2:27 a.m.

Reference frame: TEME

Reference center: EARTH

Epoch: July 7, 2025, 8:31 p.m. UTC

TLE line 0: 0 OPS 6983 (DMSP 5C F1)

TLE line 1: 1 07411U 74063A 25188.85547691 .00000188 00000-0 90234-4 0 9991

TLE line 2: 2 07411 98.5431 33.0323 0040014 301.8477 57.8813 14.29412576645174

Live tracking on map

Real-time ground track for satellite OPS 6983 (DMSP 5C F1).

In-orbit conjunctions

There are no conjunctions computed for OPS 6983 (DMSP 5C F1), at the moment. Check back to stay up to date, as we update our databases every day.

Go to all conjunctions

Associated space launch

Military meteorological satellite

OPS 6983 (DMSP 5C F1) was lifted into orbit during the mission ‘Thor Burner 2A | DMSP-5C F1’, on board a Thor Burner 2A space rocket.

The launch took place on Aug. 9, 1974, 3:22 a.m. from Space Launch Complex 10W.

For more information about the launch, click the button.

Launch to space Thor Burner 2A | DMSP-5C F1
Thor Burner 2A | DMSP-5C F1

Agency: N/A

Status: Launch Successful

Launch date: Aug. 9, 1974, 3:22 a.m. UTC

Rocket: Thor Burner 2A

Launch pad: Space Launch Complex 10W

Location: Vandenberg SFB, CA, USA

...

Latest news about this satellite

There are no fresh news available about this satellite. Check back as we update our databases every day.


Newsletter sign-up

Weekly statistics, charts and insights to help you stay on top of the space industry.